Location: Daouli
(14.8671°N, 3.2030°W)
Time: 01:14:09
(UTC+00:00)

SL-16 R/B - Pass Details

Date: 29 October 2020
Orbit: 842 x 846 km, 71.0° (Epoch: 02 December)

Event Time Altitude Azimuth Distance (km) Brightness Sun altitude
Rises 20:14:20 0° 219° (SW) 3,386 5.9 -36.3°
Reaches altitude 10° 20:17:05 10° 231° (SW) 2,453 5.2 -37.0°
Enters shadow 20:21:32 29° 283° (WNW) 1,511 3.9 -38.1°
